Weather History for KSBA

Nearest airport to NA, NA.

See history from more local stations
Change the Weather History Date:

Thursday, March 6, 2014

  Actual Average Record
Temperature  
Mean Temperature 69 °F 55 °F  
Max Temperature 83 °F 65 °F 83 °F (2014)
Min Temperature 55 °F 46 °F 35 °F (1971)
Degree Days  
Heating Degree Days 0 10  
Month to date heating degree days 36 60  
Since 1 July heating degree days 1271 1661  
Cooling Degree Days 4 0  
Month to date cooling degree days 4 0  
Year to date cooling degree days 4 0  
Growing Degree Days 18 (Base 50)    
Moisture  
Dew Point 52 °F    
Average Humidity 64    
Maximum Humidity 93    
Minimum Humidity 34    
Precipitation  
Precipitation 0.00 in 0.12 in 1.15 in (1952)
Month to date precipitation 0.83 0.74  
Year to date precipitation 4.67 8.20  
Since 1 July precipitation 6.03 13.91  
Sea Level Pressure  
Sea Level Pressure 30.00 in    
Wind  
Wind Speed 8 mph (NW)    
Max Wind Speed 28 mph    
Max Gust Speed 93 mph    
Visibility 10 miles    
Events      
T = Trace of Precipitation, MM = Missing Value Source: NWS Daily Summary

Daily Weather History Graph

Daily Weather History Graph

Search for Another Location

Airport or City:

Trip Planner

Search our weather history database for the weather conditions in past years. The results will help you decide how hot, cold, wet, or windy it might be!

Date:

Astronomy

Mar. 06, 2014 Rise Set
Actual Time 6:21 AM PST 5:59 PM PST
Civil Twilight 5:56 AM PST 6:24 PM PST
Nautical Twilight 5:27 AM PST 6:54 PM PST
Astronomical Twilight 4:58 AM PST 7:23 PM PST
Moon 9:47 AM PST 11:55 PM PST
Length of Visible Light 12h 28m
Length of Day
11h 38m
Waxing Crescent, 33% of the Moon is Illuminated
Mar 6
Waxing Crescent
Mar 8
First Quarter
Mar 16
Full
Mar 23
Last Quarter
Mar 30
New

Hourly Weather History & Observations

Time (PST) Temp. Dew Point Humidity Pressure Visibility Wind Dir Wind Speed Gust Speed Precip Events Conditions
12:53 AM 55.9 °F 54.0 °F 93% 30.05 in 8.0 mi West 5.8 mph - N/A   Clear
1:53 AM 57.0 °F 54.0 °F 89% 30.04 in 10.0 mi WNW 3.5 mph - N/A   Clear
2:53 AM 55.9 °F 53.1 °F 90% 30.03 in 10.0 mi Calm Calm - N/A   Clear
3:53 AM 57.9 °F 55.0 °F 90% 30.01 in 10.0 mi SE 3.5 mph - N/A   Clear
4:53 AM 57.0 °F 54.0 °F 89% 30.01 in 10.0 mi Calm Calm - N/A   Clear
5:53 AM 57.9 °F 55.0 °F 90% 30.02 in 10.0 mi SE 4.6 mph - N/A   Scattered Clouds
6:53 AM 57.9 °F 55.9 °F 93% 30.05 in 8.0 mi Calm Calm - N/A   Mostly Cloudy
7:53 AM 61.0 °F 57.9 °F 90% 30.05 in 8.0 mi SSE 3.5 mph - N/A   Partly Cloudy
8:53 AM 64.0 °F 57.0 °F 78% 30.06 in 10.0 mi ESE 5.8 mph - N/A   Clear
9:53 AM 64.9 °F 57.0 °F 75% 30.05 in 10.0 mi SSE 8.1 mph - N/A   Clear
10:53 AM 66.0 °F 57.9 °F 75% 30.04 in 10.0 mi SE 10.4 mph - N/A   Partly Cloudy
11:53 AM 71.1 °F 57.9 °F 63% 30.01 in 10.0 mi SSE 8.1 mph - N/A   Partly Cloudy
12:26 PM 78.8 °F 55.4 °F 44% 29.99 in 10.0 mi West 17.3 mph 26.5 mph N/A   Scattered Clouds
12:53 PM 82.0 °F 52.0 °F 35% 29.97 in 10.0 mi NW 16.1 mph 24.2 mph N/A   Scattered Clouds
1:53 PM 82.0 °F 52.0 °F 35% 29.94 in 10.0 mi NW 18.4 mph 24.2 mph N/A   Clear
2:53 PM 79.0 °F 53.1 °F 40% 29.94 in 10.0 mi NW 10.4 mph 19.6 mph N/A   Scattered Clouds
3:53 PM 77.0 °F 53.1 °F 43% 29.93 in 10.0 mi NW 11.5 mph - N/A   Partly Cloudy
4:53 PM 73.0 °F 48.9 °F 42% 29.94 in 10.0 mi North 27.6 mph 93.2 mph N/A   Partly Cloudy
5:00 PM 71.6 °F 48.2 °F 43% 29.94 in 10.0 mi North - - N/A   Clear
5:53 PM 68.0 °F 46.0 °F 45% 29.96 in 10.0 mi NW 10.4 mph - N/A   Scattered Clouds
6:53 PM 66.0 °F 45.0 °F 47% 29.98 in 10.0 mi North 5.8 mph - N/A   Clear
7:53 PM 64.9 °F 46.0 °F 50% 29.99 in 10.0 mi North 13.8 mph - N/A   Clear
8:53 PM 64.9 °F 46.9 °F 52% 29.99 in 10.0 mi North 6.9 mph - N/A   Clear
9:53 PM 64.0 °F 46.0 °F 52% 30.00 in 10.0 mi North 8.1 mph - N/A   Clear
10:53 PM 64.9 °F 45.0 °F 48% 30.00 in 10.0 mi NNW 16.1 mph 28.8 mph N/A   Clear
11:53 PM 62.1 °F 45.0 °F 53% 30.01 in 10.0 mi NNW 3.5 mph - N/A   Clear